Вернуться в каталог

GRUS-3F

АктивенНаукаSSO
NORAD 69894·PAYLOAD·🇦🇺 Australia

Запущен Jul 7, 2026 с Vandenberg Space Force Base

Loading…

Ближайшие Пролёты (ближайшие 24 часа)

TLE

СвежийSource: Space-Track

Эпоха: Sep 14, 2026, 12:08 UTC

1 69894U 26156AB  26257.50623564  .00000567  00000-0  61984-4 0  9999
2 69894  97.7471 156.7963 0004175 282.8832  77.1920 14.91624533 10319

Отслеживайте GRUS-3F в реальном времени с AllMySat

Download on the App Store